When you browse on this site, cookies collect data to enhance your experience and personalize the content and advertising you see.
Visit our Privacy Policy to learn more. By continuing to use the site, you agree to this use of cookies and data.
  • In United Kingdom
  • List of Countries
  • For 7 days
  • Water Temperature
  • Satellite Maps
  • Weather Map
  • Weather Widgets
  • user-avatar
    Login

    Hourly Weather Olesno

    Today, 23 April, Tuesday

    Time Temperature Precipitation Wind Pressure Humidity
    00:00 +8°C° 0 mm 6 mps 742 mmHg 59%
    01:00 +8°C° 0 mm 6 mps 741 mmHg 59%
    02:00 +7°C° 0 mm 6 mps 741 mmHg 61%
    03:00 +6°C° 0 mm 7 mps 741 mmHg 62%
    04:00 +6°C° 0 mm 7 mps 741 mmHg 63%
    05:00 +8°C° 0 mm 7 mps 741 mmHg 62%
    06:00 +8°C° 0 mm 7 mps 740 mmHg 62%
    07:00 +9°C° 0 mm 7 mps 740 mmHg 61%
    08:00 +11°C° 0 mm 7 mps 740 mmHg 58%
    09:00 +12°C° 0 mm 7 mps 740 mmHg 54%
    10:00 +15°C° 0 mm 7 mps 740 mmHg 50%
    11:00 +16°C° 0 mm 8 mps 740 mmHg 47%
    12:00 +17°C° 0 mm 8 mps 740 mmHg 44%
    13:00 +18°C° 0 mm 8 mps 740 mmHg 41%
    14:00 +17°C° 0.3 mm 7 mps 739 mmHg 48%
    15:00 +16°C° 0.3 mm 5 mps 739 mmHg 55%
    16:00 +15°C° 0.3 mm 4 mps 739 mmHg 62%
    17:00 +14°C° 0 mm 4 mps 739 mmHg 62%
    18:00 +14°C° 0 mm 4 mps 739 mmHg 61%
    19:00 +14°C° 0 mm 5 mps 739 mmHg 60%
    20:00 +13°C° 0 mm 5 mps 739 mmHg 62%
    21:00 +12°C° 0 mm 5 mps 739 mmHg 64%
    22:00 +12°C° 0 mm 5 mps 739 mmHg 66%
    23:00 +12°C° 0 mm 5 mps 739 mmHg 65%

    Tomorrow, 24 April, Wednesday

    Time Temperature Precipitation Wind Pressure Humidity
    00:00 +10°C° 0 mm 5 mps 738 mmHg 65%
    01:00 +10°C° 0 mm 6 mps 738 mmHg 65%
    02:00 +10°C° 0 mm 5 mps 738 mmHg 68%
    03:00 +9°C° 0 mm 5 mps 738 mmHg 70%
    04:00 +9°C° 0 mm 5 mps 738 mmHg 73%
    05:00 +10°C° 0 mm 5 mps 738 mmHg 71%
    06:00 +11°C° 0 mm 6 mps 738 mmHg 69%
    07:00 +13°C° 0 mm 6 mps 738 mmHg 66%
    08:00 +14°C° 0 mm 6 mps 738 mmHg 62%
    09:00 +16°C° 0 mm 6 mps 738 mmHg 58%
    10:00 +17°C° 0 mm 6 mps 739 mmHg 53%
    11:00 +19°C° 0 mm 5 mps 739 mmHg 54%
    12:00 +19°C° 0 mm 5 mps 739 mmHg 55%
    13:00 +19°C° 0 mm 4 mps 739 mmHg 56%
    14:00 +19°C° 0 mm 4 mps 739 mmHg 59%
    15:00 +18°C° 0 mm 3 mps 739 mmHg 63%
    16:00 +18°C° 0 mm 3 mps 739 mmHg 66%
    17:00 +17°C° 0 mm 3 mps 739 mmHg 67%
    18:00 +17°C° 0 mm 3 mps 739 mmHg 67%
    19:00 +17°C° 0 mm 3 mps 739 mmHg 68%
    20:00 +15°C° 0 mm 4 mps 739 mmHg 68%
    21:00 +15°C° 0 mm 4 mps 739 mmHg 67%
    22:00 +15°C° 0 mm 4 mps 739 mmHg 66%
    23:00 +14°C° 0 mm 4 mps 739 mmHg 69%

    Day after tomorrow, 25 April, Thursday

    Time Temperature Precipitation Wind Pressure Humidity
    00:00 +14°C° 0 mm 4 mps 738 mmHg 71%
    01:00 +13°C° 0 mm 4 mps 738 mmHg 73%
    02:00 +13°C° 0 mm 4 mps 738 mmHg 76%
    03:00 +12°C° 0 mm 4 mps 738 mmHg 80%
    04:00 +12°C° 0 mm 4 mps 738 mmHg 83%
    05:00 +13°C° 0 mm 4 mps 738 mmHg 79%
    06:00 +14°C° 0 mm 4 mps 739 mmHg 76%
    07:00 +15°C° 0 mm 5 mps 739 mmHg 72%
    08:00 +18°C° 0 mm 4 mps 739 mmHg 68%
    09:00 +19°C° 0 mm 4 mps 740 mmHg 63%
    10:00 +20°C° 0 mm 4 mps 740 mmHg 59%
    11:00 +21°C° 0 mm 4 mps 740 mmHg 56%
    12:00 +22°C° 0 mm 3 mps 740 mmHg 52%
    13:00 +24°C° 0 mm 3 mps 740 mmHg 49%
    14:00 +25°C° 0 mm 3 mps 740 mmHg 49%
    15:00 +25°C° 0 mm 3 mps 740 mmHg 49%
    16:00 +25°C° 0 mm 3 mps 740 mmHg 50%
    17:00 +22°C° 0 mm 3 mps 740 mmHg 57%
    18:00 +21°C° 0 mm 3 mps 740 mmHg 64%
    19:00 +19°C° 0 mm 3 mps 739 mmHg 71%
    20:00 +18°C° 0 mm 3 mps 739 mmHg 72%
    21:00 +17°C° 0 mm 3 mps 739 mmHg 74%
    22:00 +16°C° 0 mm 3 mps 739 mmHg 76%
    23:00 +16°C° 0 mm 3 mps 739 mmHg 75%

    26 April, Friday

    Time Temperature Precipitation Wind Pressure Humidity
    00:00 +16°C° 0 mm 3 mps 739 mmHg 75%
    01:00 +16°C° 0 mm 3 mps 738 mmHg 75%
    02:00 +14°C° 0 mm 3 mps 738 mmHg 77%
    03:00 +14°C° 0 mm 3 mps 738 mmHg 79%
    04:00 +13°C° 0 mm 3 mps 738 mmHg 80%
    05:00 +16°C° 0 mm 3 mps 738 mmHg 75%
    06:00 +17°C° 0 mm 4 mps 737 mmHg 70%
    07:00 +19°C° 0 mm 4 mps 737 mmHg 65%
    08:00 +20°C° 0 mm 5 mps 737 mmHg 60%
    09:00 +21°C° 0 mm 5 mps 737 mmHg 55%
    10:00 +22°C° 0 mm 5 mps 736 mmHg 51%
    11:00 +23°C° 0 mm 5 mps 736 mmHg 48%
    12:00 +26°C° 0 mm 5 mps 736 mmHg 46%
    13:00 +27°C° 0 mm 5 mps 736 mmHg 43%
    14:00 +27°C° 0 mm 5 mps 736 mmHg 44%
    15:00 +27°C° 0 mm 5 mps 736 mmHg 44%
    16:00 +27°C° 0 mm 5 mps 736 mmHg 45%
    17:00 +25°C° 0 mm 4 mps 735 mmHg 51%
    18:00 +22°C° 0 mm 3 mps 735 mmHg 57%
    19:00 +21°C° 0 mm 2 mps 735 mmHg 63%
    20:00 +20°C° 0.1 mm 2 mps 735 mmHg 67%
    21:00 +19°C° 0.1 mm 3 mps 735 mmHg 71%
    22:00 +18°C° 0.1 mm 3 mps 735 mmHg 76%
    23:00 +17°C° 0 mm 3 mps 735 mmHg 82%

    27 April, Saturday

    Time Temperature Precipitation Wind Pressure Humidity
    00:00 +16°C° 0 mm 3 mps 735 mmHg 89%
    01:00 +15°C° 0 mm 2 mps 735 mmHg 95%
    02:00 +15°C° 0 mm 2 mps 735 mmHg 95%
    03:00 +15°C° 0 mm 2 mps 735 mmHg 95%
    04:00 +15°C° 0 mm 2 mps 735 mmHg 95%
    05:00 +14°C° 0.3 mm 3 mps 735 mmHg 94%
    06:00 +14°C° 0.3 mm 3 mps 735 mmHg 93%
    07:00 +14°C° 0.3 mm 3 mps 736 mmHg 91%
    08:00 +13°C° 0.6 mm 4 mps 736 mmHg 90%
    09:00 +10°C° 0.6 mm 5 mps 736 mmHg 88%
    10:00 +9°C° 0.6 mm 6 mps 737 mmHg 87%
    11:00 +9°C° 0.1 mm 5 mps 737 mmHg 85%
    12:00 +9°C° 0.1 mm 5 mps 737 mmHg 84%
    13:00 +10°C° 0.1 mm 4 mps 737 mmHg 83%
    14:00 +11°C° 0.2 mm 4 mps 738 mmHg 83%
    15:00 +11°C° 0.2 mm 4 mps 738 mmHg 83%
    16:00 +11°C° 0.2 mm 4 mps 738 mmHg 83%
    17:00 +10°C° 0.3 mm 4 mps 738 mmHg 85%
    18:00 +10°C° 0.3 mm 4 mps 738 mmHg 87%
    19:00 +9°C° 0.3 mm 3 mps 739 mmHg 90%
    20:00 +9°C° 0.3 mm 3 mps 739 mmHg 91%
    21:00 +9°C° 0.3 mm 3 mps 739 mmHg 92%
    22:00 +9°C° 0.3 mm 2 mps 739 mmHg 94%
    23:00 +9°C° 0 mm 2 mps 739 mmHg 93%

    28 April, Sunday

    Time Temperature Precipitation Wind Pressure Humidity
    00:00 +8°C° 0 mm 2 mps 740 mmHg 93%
    01:00 +8°C° 0 mm 3 mps 740 mmHg 93%
    02:00 +8°C° 0 mm 3 mps 740 mmHg 94%
    03:00 +7°C° 0 mm 3 mps 740 mmHg 94%
    04:00 +7°C° 0 mm 3 mps 740 mmHg 94%
    05:00 +8°C° 0 mm 3 mps 740 mmHg 91%
    06:00 +9°C° 0 mm 3 mps 740 mmHg 88%
    07:00 +8°C° 0 mm 4 mps 741 mmHg 85%
    08:00 +11°C° 0.2 mm 3 mps 741 mmHg 81%
    09:00 +12°C° 0.2 mm 3 mps 741 mmHg 76%
    10:00 +13°C° 0.2 mm 3 mps 741 mmHg 72%
    11:00 +14°C° 0.4 mm 3 mps 741 mmHg 67%
    12:00 +16°C° 0.4 mm 3 mps 741 mmHg 63%
    13:00 +16°C° 0.4 mm 2 mps 741 mmHg 58%
    14:00 +16°C° 0.3 mm 3 mps 741 mmHg 59%
    15:00 +16°C° 0.3 mm 3 mps 741 mmHg 59%
    16:00 +16°C° 0.3 mm 3 mps 741 mmHg 60%
    17:00 +15°C° 0 mm 2 mps 741 mmHg 66%
    18:00 +14°C° 0 mm 2 mps 741 mmHg 72%
    19:00 +13°C° 0 mm 2 mps 741 mmHg 78%
    20:00 +12°C° 0 mm 2 mps 742 mmHg 81%
    21:00 +10°C° 0 mm 2 mps 742 mmHg 85%
    22:00 +10°C° 0 mm 1 mps 742 mmHg 88%
    23:00 +9°C° 0 mm 1 mps 742 mmHg 90%
    Show more